Regional Weather Roundup
Issued by NWS

Home | Current Version | Previous Version | Text Only | Print | Product List | Glossary Off
Versions: 1 2 3 4 5 6 7 8 9 10 11 12 13 14 15 16 17 18 19 20 21 22 23 24 25 26 27 28 29 30 31 32 33 34 35 36 37 38 39 40 41 42 43 44 45 46 47 48 49 50

000
ASUS43 KDTX 172101
RWRMI
MICHIGAN HOURLY REGIONAL WEATHER ROUNDUP
NATIONAL WEATHER SERVICE DETROIT/PONTIAC MI
500 PM EDT FRI APR 17 2015

NOTE: "FAIR" INDICATES FEW OR NO CLOUDS BELOW 12,000 FEET WITH NO
SIGNIFICANT WEATHER AND/OR OBSTRUCTION TO VISIBILITY.

MIZ047>049-052>055-059>063-066>070-074>076-081>083-172200-
SOUTHEAST LOWER MICHIGAN

CITY           SKY/WX    TMP DP  RH WIND       PRES   REMARKS
ADRIAN         MOSUNNY   75  39  27 VRB3      30.00F
ALMA           PTSUNNY   75  36  24 W5        29.98F
ANN ARBOR      MOSUNNY   77  38  24 W12G18    29.99F
BAD AXE        SUNNY     70  34  26 SW8       29.99F
CARO           MOSUNNY   73  41  31 W7        29.98F
DETROIT CITY   SUNNY     71  46  40 E12       29.98F
DETROIT        MOSUNNY   72  46  39 SE12      30.00F
FLINT          PTSUNNY   77  40  26 NW10G21   29.98F
GROSSE ILE     SUNNY     61  46  59 SE9       29.99F
HILLSDALE      PTSUNNY   74  39  28 W7        30.02S
HOWELL         PTSUNNY   74  36  24 NW8       29.99S

CITY           SKY/WX    TMP DP  RH WIND       PRES   REMARKS
JACKSON        MOSUNNY   73  39  29 SW9       30.00F
LAMBERTVILLE   SUNNY     77  36  22 W7        30.00F
LANSING        MOSUNNY   76  38  25 NW14      30.00F
LAPEER         MOCLDY    71  37  28 NW6       29.99F
MASON          PTSUNNY   75  37  25 NW7       29.99F
MONROE         SUNNY     70  46  43 S10       29.99F
MT. CLEMENS    MOSUNNY   66  49  53 E9        29.98F
PONTIAC        MOSUNNY   74  36  25 SW8       29.98F
PORT HOPE        N/A     53  47  79 SE15      29.98F
PORT HURON     SUNNY     68  46  45 NE9       30.00F
TRI CITIES     PTSUNNY   75  39  27 N5        29.97F
TROY           PTSUNNY   75  35  23 NW6       30.00F
SAGINAW HB     MOSUNNY   72  37  28 CALM      29.98F
$$
MIZ043>046-050>051-056>058-064>065-071>073-077>080-172200-
SOUTHWEST LOWER MICHIGAN

CITY           SKY/WX    TMP DP  RH WIND       PRES   REMARKS
BATTLE CREEK   SUNNY     76  40  27 MISG      30.01F
BENTON HARBOR  SUNNY     71  42  35 W8        30.03F
BIG RAPIDS     CLOUDY    74  36  25 W10G16    29.97F
COLDWATER      PTSUNNY   74  42  31 W12G20    30.01S
FREMONT        FAIR      73  32  22 W13       30.00S
HOLLAND        SUNNY     71  44  37 W6        30.03F
GRAND RAPIDS   PTSUNNY   75  41  29 NW13      30.01S
IONIA          FAIR      75  39  26 NW10      29.99S
KALAMAZOO      SUNNY     75  39  27 W8        30.01F
LUDINGTON      MOSUNNY   56  41  58 W5        30.03F
MARSHALL       PTSUNNY   74  40  29 NW5       29.99S
MOUNT PLEASANT MOSUNNY   74  39  27 N7        29.97F
MUSKEGON       MOSUNNY   61  40  45 SW8       30.03S
SOUTH HAVEN    SUNNY     68  49  50 NW7       30.03S
$$
MIZ016>042-172200-
NORTHERN LOWER MICHIGAN

CITY           SKY/WX    TMP DP  RH WIND       PRES   REMARKS
ALPENA         MOSUNNY   61  39  44 SE9       29.98F
BEAVER ISLAND  SUNNY     63  29  27 NW3       30.00F
BELLAIRE       SUNNY     69  38  32 NW6       29.99F
CADILLAC       SUNNY     72  38  29 NW12G18   29.98F
CHARLEVOIX     SUNNY     55  39  54 CALM      30.04F
FRANKFORT      SUNNY     68  36  30 W8        30.00F
GAYLORD        SUNNY     65  38  36 W10G17    29.99F
GRAYLING       SUNNY     71  38  29 NW12G17   29.99F
HARBOR SPRINGS SUNNY     42  35  78 SW5       30.00F
HOUGHTON LAKE  SUNNY     71  38  29 W7        29.98F
MANISTEE       SUNNY     61  43  51 NW6       30.02F
OSCODA         MOSUNNY   52  40  64 E10       29.99R
PELLSTON       SUNNY     66  24  20 NW10      29.99F
ROGERS CITY    SUNNY     60  34  37 NW10      30.00S
TRAVERSE CITY  MOSUNNY   62  40  44 N7        30.00F
$$
MIZ007>008-015-172200-
EASTERN UPPER MICHIGAN

CITY           SKY/WX    TMP DP  RH WIND       PRES   REMARKS
KINROSS        SUNNY     57  28  33 N8        30.00S
MACKINAC ISLAN SUNNY     58  32  36 NW5       30.00S
NEWBERRY       SUNNY     59  27  29 NW6       30.01S
S. S. MARIE    SUNNY     56  29  35 NW10      30.00F
MUNISING         N/A     44  32  62 N5        30.01F
$$
MIZ004>006-011>014-085-172200-
CENTRAL UPPER MICHIGAN

CITY           SKY/WX    TMP DP  RH WIND       PRES   REMARKS
MANISTIQUE     SUNNY     55  37  50 S6        30.00F
ESCANABA       SUNNY     57  34  41 SE10      29.98F
MENOMINEE      SUNNY     61  39  44 S16       30.00F
SAWYER-GWINN   SUNNY     64  32  29 NE7       29.97F
$$
MIZ001>003-009>011-084-172200-
WESTERN UPPER MICHIGAN

CITY           SKY/WX    TMP DP  RH WIND       PRES   REMARKS
IRON MOUNTAIN  MOSUNNY   72  37  28 W3        29.93F
HOUGHTON       SUNNY     61  30  31 E8        29.97F
COPPER HARBOR    N/A     58  30  34 VRB7      29.98F
IRONWOOD       SUNNY     66  30  26 NW8       29.95F
$$

ABBREVIATIONS USED IN REMARKS
   TC - TEMPERATURE IN CELSIUS
  WCI - WIND CHILL INDEX
   HX - HEAT INDEX
  VSB - VISIBILITY



USA.gov is the U.S. government's official web portal to all federal, state and local government web resources and services.